2023/08/13 00:00:00, 0.0,20.4
2023/08/13 00:10:00, 0.0,20.3
2023/08/13 00:20:00, 0.0,20.1
2023/08/13 00:30:00, 0.0,20.1
2023/08/13 00:40:00, 0.0,20.1
2023/08/13 00:50:00, 0.0,20.0
2023/08/13 01:00:00, 0.0,19.6
2023/08/13 01:10:00, 0.0,19.7
2023/08/13 01:20:00, 0.0,19.7
2023/08/13 01:30:00, 0.0,19.2
2023/08/13 01:40:00, 0.0,19.4
2023/08/13 01:50:00, 0.0,19.4
2023/08/13 02:00:00, 0.0,19.0
2023/08/13 02:10:00, 0.0,18.9
2023/08/13 02:20:00, 0.0,19.1
2023/08/13 02:30:00, 0.0,19.0
2023/08/13 02:40:00, 0.0,19.0
2023/08/13 02:50:00, 0.0,19.1
2023/08/13 03:00:00, 0.0,19.2
2023/08/13 03:10:00, 0.0,19.2
2023/08/13 03:20:00, 0.0,18.8
2023/08/13 03:30:00, 0.0,18.8
2023/08/13 03:40:00, 0.0,18.8
2023/08/13 03:50:00, 0.0,18.7
2023/08/13 04:00:00, 0.0,18.6
2023/08/13 04:10:00, 0.0,18.7
2023/08/13 04:20:00, 0.0,18.7
2023/08/13 04:30:00, 0.0,18.4
2023/08/13 04:40:00, 0.0,18.4
2023/08/13 04:50:00, 0.0,19.0
2023/08/13 05:00:00, 0.0,18.4
2023/08/13 05:10:00, 0.0,18.7
2023/08/13 05:20:00, 0.0,18.4
2023/08/13 05:30:00, 0.0,18.5
2023/08/13 05:40:00, 0.0,18.4
2023/08/13 05:50:00, 0.0,18.5
2023/08/13 06:00:00, 0.0,18.7
2023/08/13 06:10:00, 0.0,23.0
2023/08/13 06:20:00, 0.0,22.3
2023/08/13 06:30:00, 0.0,26.4
2023/08/13 06:40:00, 0.0,26.1
2023/08/13 06:50:00, 0.0,25.5
2023/08/13 07:00:00, 0.0,27.5
2023/08/13 07:10:00, 0.0,28.1
2023/08/13 07:20:00, 0.0,28.0
2023/08/13 07:30:00, 0.0,30.1
2023/08/13 07:40:00, 0.0,30.6
2023/08/13 07:50:00, 0.0,31.3
2023/08/13 08:00:00, 0.0,30.9
2023/08/13 08:10:00, 0.0,31.4
2023/08/13 08:20:00, 0.0,31.3
2023/08/13 08:30:00, 0.0,32.2
2023/08/13 08:40:00, 0.0,31.2
2023/08/13 08:50:00, 0.0,30.9
2023/08/13 09:00:00, 0.0,29.8
2023/08/13 09:10:00, 0.0,29.7
